• In Schweiz
  • Länderverzeichnis
  • Für 7 Tage
  • Wassertemperatur
  • Satellitenkarten
  • Wetterkarte
  • Widgets
  • user-avatar
    Anmelden

    Stündliche Wetter Isfachan

    Heute, 21 Oktober, Sonntag

    Zeit Temperatur Niederschläge Wind Luftdruck Luftfeuchtigkeit
    00:00 +19°C° 0 mm 1 m/S 634 mmHg 34%
    01:00 +18°C° 0 mm 1 m/S 633 mmHg 35%
    02:00 +18°C° 0 mm 1 m/S 633 mmHg 36%
    03:00 +18°C° 0 mm 1 m/S 633 mmHg 38%
    04:00 +16°C° 0 mm 1 m/S 633 mmHg 38%
    05:00 +15°C° 0 mm 0 m/S 633 mmHg 39%
    06:00 +15°C° 0 mm 0 m/S 633 mmHg 40%
    07:00 +16°C° 0 mm 0 m/S 633 mmHg 37%
    08:00 +19°C° 0 mm 1 m/S 634 mmHg 33%
    09:00 +20°C° 0 mm 1 m/S 635 mmHg 30%
    10:00 +21°C° 0 mm 1 m/S 635 mmHg 28%
    11:00 +22°C° 0 mm 1 m/S 635 mmHg 26%
    12:00 +23°C° 0 mm 1 m/S 635 mmHg 24%
    13:00 +24°C° 0 mm 1 m/S 635 mmHg 23%
    14:00 +24°C° 0 mm 1 m/S 634 mmHg 22%
    15:00 +25°C° 0 mm 2 m/S 634 mmHg 21%
    16:00 +24°C° 0 mm 2 m/S 634 mmHg 22%
    17:00 +24°C° 0 mm 2 m/S 634 mmHg 23%
    18:00 +23°C° 0 mm 2 m/S 634 mmHg 24%
    19:00 +21°C° 0 mm 2 m/S 635 mmHg 26%
    20:00 +21°C° 0 mm 2 m/S 635 mmHg 27%
    21:00 +20°C° 0 mm 2 m/S 635 mmHg 28%
    22:00 +21°C° 0 mm 1 m/S 634 mmHg 29%
    23:00 +20°C° 0 mm 1 m/S 634 mmHg 30%

    Morgen, 22 Oktober, Montag

    Zeit Temperatur Niederschläge Wind Luftdruck Luftfeuchtigkeit
    00:00 +20°C° 0 mm 1 m/S 634 mmHg 32%
    01:00 +19°C° 0 mm 1 m/S 634 mmHg 32%
    02:00 +19°C° 0 mm 1 m/S 634 mmHg 33%
    03:00 +19°C° 0 mm 1 m/S 634 mmHg 33%
    04:00 +19°C° 0 mm 1 m/S 634 mmHg 34%
    05:00 +16°C° 0 mm 0 m/S 634 mmHg 34%
    06:00 +16°C° 0 mm 0 m/S 634 mmHg 35%
    07:00 +19°C° 0 mm 1 m/S 634 mmHg 32%
    08:00 +20°C° 0 mm 1 m/S 635 mmHg 30%
    09:00 +21°C° 0 mm 1 m/S 635 mmHg 27%
    10:00 +22°C° 0 mm 1 m/S 635 mmHg 26%
    11:00 +23°C° 0 mm 1 m/S 635 mmHg 25%
    12:00 +24°C° 0 mm 1 m/S 635 mmHg 23%
    13:00 +24°C° 0 mm 1 m/S 635 mmHg 23%
    14:00 +24°C° 0 mm 2 m/S 634 mmHg 22%
    15:00 +25°C° 0 mm 2 m/S 634 mmHg 22%
    16:00 +24°C° 0 mm 2 m/S 634 mmHg 23%
    17:00 +23°C° 0 mm 2 m/S 634 mmHg 25%
    18:00 +22°C° 0 mm 3 m/S 634 mmHg 27%
    19:00 +21°C° 0 mm 2 m/S 634 mmHg 29%
    20:00 +22°C° 0 mm 1 m/S 635 mmHg 30%
    21:00 +21°C° 0 mm 1 m/S 635 mmHg 32%
    22:00 +21°C° 0 mm 1 m/S 635 mmHg 33%
    23:00 +20°C° 0 mm 1 m/S 634 mmHg 34%

    übermorgen, 23 Oktober, Dienstag

    Zeit Temperatur Niederschläge Wind Luftdruck Luftfeuchtigkeit
    00:00 +19°C° 0 mm 1 m/S 634 mmHg 35%
    01:00 +19°C° 0 mm 1 m/S 634 mmHg 36%
    02:00 +19°C° 0 mm 1 m/S 634 mmHg 37%
    03:00 +18°C° 0 mm 1 m/S 634 mmHg 39%
    04:00 +18°C° 0 mm 1 m/S 634 mmHg 40%
    05:00 +16°C° 0 mm 1 m/S 634 mmHg 41%
    06:00 +16°C° 0 mm 1 m/S 633 mmHg 42%
    07:00 +18°C° 0 mm 1 m/S 634 mmHg 39%
    08:00 +20°C° 0 mm 1 m/S 635 mmHg 35%
    09:00 +21°C° 0 mm 1 m/S 635 mmHg 31%
    10:00 +22°C° 0 mm 1 m/S 635 mmHg 28%
    11:00 +23°C° 0 mm 1 m/S 635 mmHg 25%
    12:00 +24°C° 0 mm 1 m/S 635 mmHg 22%
    13:00 +24°C° 0 mm 1 m/S 634 mmHg 21%
    14:00 +25°C° 0 mm 1 m/S 634 mmHg 19%
    15:00 +25°C° 0 mm 1 m/S 634 mmHg 18%
    16:00 +24°C° 0 mm 1 m/S 634 mmHg 18%
    17:00 +23°C° 0 mm 2 m/S 634 mmHg 19%
    18:00 +23°C° 0 mm 2 m/S 633 mmHg 20%
    19:00 +22°C° 0 mm 1 m/S 633 mmHg 22%
    20:00 +21°C° 0 mm 1 m/S 634 mmHg 23%
    21:00 +21°C° 0 mm 1 m/S 634 mmHg 25%
    22:00 +20°C° 0 mm 1 m/S 633 mmHg 25%
    23:00 +20°C° 0 mm 1 m/S 633 mmHg 26%

    24 Oktober, Mittwoch

    Zeit Temperatur Niederschläge Wind Luftdruck Luftfeuchtigkeit
    00:00 +19°C° 0 mm 1 m/S 633 mmHg 27%
    01:00 +19°C° 0 mm 1 m/S 633 mmHg 27%
    02:00 +18°C° 0 mm 1 m/S 632 mmHg 28%
    03:00 +18°C° 0 mm 1 m/S 632 mmHg 28%
    04:00 +18°C° 0 mm 1 m/S 632 mmHg 29%
    05:00 +16°C° 0 mm 1 m/S 632 mmHg 30%
    06:00 +16°C° 0 mm 1 m/S 632 mmHg 31%
    07:00 +18°C° 0 mm 1 m/S 633 mmHg 28%
    08:00 +20°C° 0 mm 1 m/S 633 mmHg 26%
    09:00 +21°C° 0 mm 1 m/S 634 mmHg 23%
    10:00 +22°C° 0 mm 1 m/S 634 mmHg 22%
    11:00 +23°C° 0 mm 1 m/S 633 mmHg 20%
    12:00 +24°C° 0 mm 1 m/S 633 mmHg 18%
    13:00 +24°C° 0 mm 1 m/S 633 mmHg 17%
    14:00 +25°C° 0 mm 1 m/S 633 mmHg 16%
    15:00 +25°C° 0 mm 1 m/S 632 mmHg 15%
    16:00 +24°C° 0 mm 1 m/S 632 mmHg 16%
    17:00 +24°C° 0 mm 1 m/S 632 mmHg 17%
    18:00 +23°C° 0 mm 1 m/S 632 mmHg 18%
    19:00 +22°C° 0 mm 1 m/S 632 mmHg 20%
    20:00 +21°C° 0 mm 1 m/S 632 mmHg 21%
    21:00 +21°C° 0 mm 1 m/S 632 mmHg 22%
    22:00 +20°C° 0 mm 1 m/S 632 mmHg 23%
    23:00 +20°C° 0 mm 1 m/S 632 mmHg 24%

    25 Oktober, Donnerstag

    Zeit Temperatur Niederschläge Wind Luftdruck Luftfeuchtigkeit
    00:00 +19°C° 0 mm 1 m/S 631 mmHg 25%
    01:00 +19°C° 0 mm 1 m/S 631 mmHg 26%
    02:00 +18°C° 0 mm 1 m/S 631 mmHg 27%
    03:00 +18°C° 0 mm 1 m/S 631 mmHg 29%
    04:00 +18°C° 0 mm 1 m/S 631 mmHg 30%
    05:00 +16°C° 0 mm 1 m/S 631 mmHg 31%
    06:00 +16°C° 0 mm 1 m/S 631 mmHg 32%
    07:00 +18°C° 0 mm 1 m/S 631 mmHg 30%
    08:00 +20°C° 0 mm 1 m/S 632 mmHg 28%
    09:00 +22°C° 0 mm 1 m/S 633 mmHg 25%
    10:00 +23°C° 0 mm 1 m/S 633 mmHg 24%
    11:00 +24°C° 0 mm 1 m/S 632 mmHg 22%
    12:00 +25°C° 0 mm 2 m/S 632 mmHg 21%
    13:00 +26°C° 0 mm 2 m/S 632 mmHg 21%
    14:00 +26°C° 0 mm 2 m/S 632 mmHg 20%
    15:00 +27°C° 0 mm 3 m/S 632 mmHg 20%
    16:00 +26°C° 0 mm 3 m/S 632 mmHg 22%
    17:00 +25°C° 0 mm 3 m/S 632 mmHg 24%
    18:00 +24°C° 0 mm 3 m/S 632 mmHg 25%
    19:00 +22°C° 0 mm 3 m/S 632 mmHg 27%
    20:00 +23°C° 0 mm 2 m/S 632 mmHg 28%
    21:00 +21°C° 0 mm 2 m/S 633 mmHg 30%
    22:00 +20°C° 0 mm 2 m/S 632 mmHg 32%
    23:00 +21°C° 0 mm 1 m/S 632 mmHg 33%

    26 Oktober, Freitag

    Zeit Temperatur Niederschläge Wind Luftdruck Luftfeuchtigkeit
    00:00 +20°C° 0 mm 1 m/S 632 mmHg 35%
    01:00 +20°C° 0 mm 1 m/S 632 mmHg 36%
    02:00 +20°C° 0 mm 1 m/S 632 mmHg 38%
    03:00 +19°C° 0 mm 1 m/S 632 mmHg 39%
    04:00 +19°C° 0 mm 1 m/S 632 mmHg 40%
    05:00 +19°C° 0 mm 1 m/S 632 mmHg 41%
    06:00 +19°C° 0 mm 1 m/S 632 mmHg 42%
    07:00 +20°C° 0 mm 1 m/S 633 mmHg 39%
    08:00 +21°C° 0 mm 1 m/S 634 mmHg 36%
    09:00 +23°C° 0 mm 2 m/S 634 mmHg 33%
    10:00 +23°C° 0 mm 2 m/S 634 mmHg 32%
    11:00 +24°C° 0 mm 2 m/S 634 mmHg 31%
    12:00 +25°C° 0 mm 2 m/S 634 mmHg 30%
    13:00 +25°C° 0.1 mm 3 m/S 634 mmHg 30%
    14:00 +25°C° 0.1 mm 3 m/S 634 mmHg 31%
    15:00 +25°C° 0.1 mm 3 m/S 634 mmHg 32%
    16:00 +24°C° 0 mm 3 m/S 634 mmHg 34%
    17:00 +23°C° 0 mm 2 m/S 634 mmHg 36%
    18:00 +22°C° 0 mm 1 m/S 634 mmHg 38%
    19:00 +22°C° 0 mm 1 m/S 634 mmHg 40%
    20:00 +22°C° 0 mm 1 m/S 634 mmHg 41%
    21:00 +21°C° 0 mm 1 m/S 634 mmHg 42%
    22:00 +21°C° 0 mm 1 m/S 634 mmHg 43%
    23:00 +21°C° 0 mm 1 m/S 634 mmHg 44%
    Mehr zeigen